KI5NYZ-13 Weather Reports


time (UTC)temp
F
wind
direction
speed
knots
gust
knots
rain 1hr
in
rain 24hr
in
rain mn
in
humidity
%
barometer
mb
20260831022313 85 167 0.0 0.0 0.00 0.33 0.33 35 1007.8
20260831015312 87 168 0.0 0.0 0.00 0.33 0.33 33 1007.1
20260831012311 90 173 0.9 0.9 0.00 0.33 0.33 31 1006.2
20260831005310 94 174 0.9 0.9 0.01 0.33 0.33 27 1005.3
20260831002309 96 176 1.7 1.7 0.02 0.33 0.33 26 1004.9
20260830235309 97 183 0.9 0.9 0.01 0.32 0.32 24 1004.6
20260830232307 97 168 1.7 1.7 0.02 0.33 0.31 24 1004.5
20260830225306 97 178 1.7 3.5 0.02 0.32 0.30 23 1004.6
20260830222306 98 176 0.9 7.0 0.02 0.31 0.28 23 1004.5
20260830215305 98 170 0.9 7.8 0.02 0.33 0.27 24 1004.8
20260830212306 97 181 3.5 7.0 0.03 0.32 0.26 26 1005.5
20260830205306 97 173 1.7 9.6 0.04 0.31 0.24 27 1006.0
20260830202300 96 191 3.5 7.8 0.05 0.32 0.22 27 1006.5
20260830195259 96 198 3.5 7.0 0.05 0.31 0.19 27 1007.0
20260830192259 95 210 3.5 7.8 0.05 0.29 0.16 28 1007.5
20260830185257 94 170 1.7 7.0 0.05 0.28 0.13 29 1007.9
20260830182256 94 164 1.7 7.8 0.03 0.27 0.11 31 1008.4
20260830175255 92 205 3.5 7.0 0.03 0.25 0.08 34 1009.2
20260830172254 90 217 2.6 6.1 0.04 0.25 0.07 37 1009.9
20260830165253 89 189 2.6 7.0 0.02 0.23 0.04 41 1010.5
20260830162252 87 189 2.6 8.7 0.01 0.23 0.02 45 1010.9
20260830155251 85 213 2.6 6.1 0.02 0.24 0.02 48 1011.4
20260830152250 82 209 2.6 6.1 0.01 0.24 0.01 52 1012.0
20260830145249 80 212 2.6 7.8 0.00 0.23 0.00 55 1012.5
20260830142248 76 202 0.9 5.2 0.00 0.23 0.00 60 1013.3
20260830135247 72 181 0.9 2.6 0.00 0.23 0.00 66 1014.1
20260830132246 69 213 0.0 2.6 0.00 0.23 0.00 72 1014.6
20260830125245 66 253 0.0 1.7 0.00 0.23 0.00 77 1014.7
20260830122244 68 200 0.0 1.7 0.00 0.23 0.00 73 1014.1
20260830115243 68 240 0.0 1.7 0.00 0.23 0.00 72 1013.8
20260830112242 67 295 0.0 0.0 0.00 0.23 0.00 71 1013.7
20260830105241 68 226 0.0 1.7 0.00 0.23 0.00 70 1013.4
20260830102240 70 245 0.9 2.6 0.00 0.23 0.00 68 1013.1
20260830093916 71 212 1.7 1.7 0.00 0.23 0.00 62 1012.5
20260830090915 71 209 0.0 0.9 0.00 0.23 0.00 62 1012.4
20260830083914 72 211 0.9 1.7 0.00 0.23 0.00 60 1012.2
20260830080949 72 206 1.7 1.7 0.00 0.23 0.00 61 1012.4
20260830073912 74 247 0.9 0.9 0.00 0.23 0.00 57 1012.2
20260830070911 76 193 0.9 0.9 0.00 0.23 0.00 52 1011.9
20260830063910 76 193 0.0 0.0 0.00 0.23 0.00 52 1011.8
20260830060909 78 191 0.9 1.7 0.00 0.23 0.00 48 1011.4
20260830053908 79 199 1.7 1.7 0.00 0.23 0.00 47 1011.2
20260830050907 79 197 1.7 1.7 0.00 0.23 0.00 45 1011.2
20260830043906 79 205 0.9 0.9 0.00 0.23 0.23 45 1011.1
20260830040905 81 203 0.9 0.9 0.00 0.23 0.23 42 1010.8
20260830033904 83 191 0.9 0.9 0.00 0.23 0.23 39 1010.5
20260830030903 85 180 2.6 2.6 0.00 0.23 0.23 36 1009.6
20260830023902 87 179 1.7 1.7 0.00 0.23 0.23 33 1008.9